timestamp,surface_pressure_avg,surface_temp_avg,battery_voltage,lat,long
2022-02-22 00:09:00+00:00,246.3381,1.4,12.25,47.84626,-54.09684
2022-02-22 00:19:00+00:00,244.058,1.4,12.25,47.84626,-54.09684
2022-02-22 00:29:00+00:00,249.1131,1.4,12.25,47.84626,-54.09684
2022-02-22 00:39:00+00:00,265.9664,1.4,12.25,47.84626,-54.09684
2022-02-22 00:49:00+00:00,274.6964,1.4,12.25,47.84626,-54.09684
2022-02-22 00:59:00+00:00,274.4698,1.38,12.25,47.84626,-54.09684
2022-02-22 01:09:00+00:00,280.8497,1.36,12.25,47.84626,-54.09684
2022-02-22 01:19:01+00:00,293.083,1.36,12.25,47.84626,-54.09684
2022-02-22 01:29:01+00:00,298.4164,1.3,12.25,47.84626,-54.09684
2022-02-22 01:39:01+00:00,300.378,1.3,12.25,47.84626,-54.09684
2022-02-22 01:49:01+00:00,306.5698,1.3,12.25,47.84626,-54.09684
2022-02-22 01:59:01+00:00,311.878,1.3,12.25,47.84626,-54.09684
2022-02-22 02:09:01+00:00,315.4613,1.3,12.25,47.84626,-54.09684
2022-02-22 02:19:00+00:00,321.133,1.3,12.25,47.84626,-54.09684
2022-02-22 02:29:00+00:00,322.7047,1.3,12.25,47.84626,-54.09684
2022-02-22 02:39:00+00:00,320.5247,1.33,12.25,47.84626,-54.09684
2022-02-22 02:49:00+00:00,321.703,1.35,12.25,47.84626,-54.09684
2022-02-22 02:59:00+00:00,325.5114,1.36,12.25,47.84626,-54.09684
2022-02-22 03:09:00+00:00,324.1429,1.38,12.25,47.84626,-54.09684
2022-02-22 03:19:01+00:00,321.4763,1.4,12.25,47.84626,-54.09684
2022-02-22 03:29:01+00:00,326.8313,1.4,12.25,47.84626,-54.09684
2022-02-22 03:39:01+00:00,327.2031,1.4,12.25,47.84626,-54.09684
2022-02-22 03:49:01+00:00,327.5964,1.4,12.25,47.84626,-54.09684
2022-02-22 03:59:01+00:00,327.7029,1.4,12.25,47.84626,-54.09684
2022-02-22 04:09:01+00:00,325.943,1.4,12.25,47.84626,-54.09684
2022-02-22 04:19:00+00:00,318.688,1.4,12.25,47.84626,-54.09684
2022-02-22 04:29:00+00:00,318.4946,1.4,12.25,47.84626,-54.09684
2022-02-22 04:39:00+00:00,322.313,1.4,12.25,47.84626,-54.09684
2022-02-22 04:49:00+00:00,317.0563,1.4,12.25,47.84626,-54.09684
2022-02-22 04:59:00+00:00,311.2847,1.4,12.25,47.84626,-54.09684
2022-02-22 05:09:00+00:00,311.0463,1.4,12.25,47.84626,-54.09684
2022-02-22 05:19:01+00:00,306.7247,1.4,12.25,47.84626,-54.09684
2022-02-22 05:29:01+00:00,301.7597,1.3,12.25,47.84626,-54.09684
2022-02-22 05:39:01+00:00,304.8447,1.3,12.25,47.84626,-54.09684
2022-02-22 05:49:01+00:00,304.2397,1.3,12.25,47.84626,-54.09684
2022-02-22 05:59:01+00:00,290.6331,1.3,12.25,47.84626,-54.09684
2022-02-22 06:09:01+00:00,281.5731,1.33,12.25,47.84626,-54.09684
2022-02-22 06:19:00+00:00,279.5397,1.33,12.25,47.84626,-54.09684
2022-02-22 06:29:00+00:00,271.0764,1.32,12.25,47.84626,-54.09684
2022-02-22 06:39:00+00:00,259.2898,1.3,12.25,47.84626,-54.09684
2022-02-22 06:49:00+00:00,248.1714,1.32,12.25,47.84626,-54.09684
2022-02-22 06:59:00+00:00,241.3615,1.33,12.25,47.84626,-54.09684
2022-02-22 07:09:00+00:00,233.0331,1.33,12.25,47.84626,-54.09684
2022-02-22 07:19:01+00:00,224.4464,1.3,12.25,47.84626,-54.09684
2022-02-22 07:29:01+00:00,217.4415,1.2,12.25,47.84626,-54.09684
2022-02-22 07:39:01+00:00,212.2598,1.1,12.25,47.84626,-54.09684
2022-02-22 07:49:01+00:00,203.1398,1.0,12.25,47.84626,-54.09684
2022-02-22 07:59:01+00:00,196.7064,1.0,12.25,47.84626,-54.09684
2022-02-22 08:09:01+00:00,196.1398,1.0,12.25,47.84626,-54.09684
2022-02-22 08:19:00+00:00,189.2848,1.0,12.25,47.84626,-54.09684
2022-02-22 08:29:00+00:00,178.8015,1.0,12.25,47.84626,-54.09684
2022-02-22 08:39:00+00:00,176.3965,1.0,12.25,47.84626,-54.09684
2022-02-22 08:49:00+00:00,178.8498,1.0,12.25,47.84626,-54.09684
2022-02-22 08:59:00+00:00,178.2748,1.04,12.25,47.84626,-54.09684
2022-02-22 09:09:00+00:00,175.2748,1.09,12.25,47.84626,-54.09684
2022-02-22 09:19:00+00:00,178.7865,1.1,12.25,47.84626,-54.09684
2022-02-22 09:29:00+00:00,182.8348,1.1,12.25,47.84626,-54.09684
2022-02-22 09:39:00+00:00,182.9865,1.1,12.25,47.84626,-54.09684
2022-02-22 09:49:00+00:00,182.7231,1.1,12.25,47.84626,-54.09684
2022-02-22 09:59:00+00:00,185.4765,1.08,12.25,47.84626,-54.09684
2022-02-22 10:09:00+00:00,188.6198,1.0,12.25,47.84626,-54.09684
2022-02-22 10:19:00+00:00,190.1565,1.0,12.25,47.84626,-54.09684
2022-02-22 10:29:00+00:00,190.5215,1.0,12.25,47.84626,-54.09684
2022-02-22 10:39:00+00:00,194.9631,1.0,12.25,47.84626,-54.09684
2022-02-22 10:49:00+00:00,200.8714,1.0,12.25,47.84626,-54.09684
2022-02-22 10:59:00+00:00,203.9598,1.0,12.25,47.84626,-54.09684
2022-02-22 11:09:00+00:00,208.1031,1.0,12.25,47.84626,-54.09684
2022-02-22 11:19:00+00:00,214.5281,0.78,12.25,47.84626,-54.09684
2022-02-22 11:29:00+00:00,217.8314,0.5,12.25,47.84626,-54.09684
2022-02-22 11:39:00+00:00,219.2914,0.4,12.25,47.84626,-54.09684
2022-02-22 11:49:00+00:00,222.7498,0.48,12.25,47.84626,-54.09684
2022-02-22 11:59:00+00:00,228.0148,0.68,12.25,47.84626,-54.09684
2022-02-22 12:09:00+00:00,232.0798,0.7,12.25,47.84626,-54.09684
2022-02-22 12:19:00+00:00,234.4848,0.7,12.25,47.84626,-54.09684
2022-02-22 12:29:00+00:00,239.4081,0.7,12.25,47.84626,-54.09684
2022-02-22 12:39:00+00:00,245.3814,0.7,12.25,47.84626,-54.09684
2022-02-22 12:49:00+00:00,248.9981,0.71,12.25,47.84626,-54.09684
2022-02-22 12:59:00+00:00,255.5764,0.78,12.25,47.84626,-54.09684
2022-02-22 13:09:00+00:00,260.6165,0.8,12.25,47.84626,-54.09684
2022-02-22 13:19:01+00:00,259.9547,0.8,12.25,47.84626,-54.09684
2022-02-22 13:29:01+00:00,262.3998,0.92,12.25,47.84626,-54.09684
2022-02-22 13:39:01+00:00,275.1848,0.9,12.25,47.84626,-54.09684
2022-02-22 13:49:01+00:00,284.0147,1.18,12.25,47.84626,-54.09684
2022-02-22 13:59:01+00:00,285.8064,1.0,12.25,47.84626,-54.09684
2022-02-22 14:09:01+00:00,290.0598,0.89,12.25,47.84626,-54.09684
2022-02-22 14:19:00+00:00,299.2563,0.8,12.25,47.84626,-54.09684
2022-02-22 14:29:00+00:00,306.7814,0.96,12.25,47.84626,-54.09684
2022-02-22 14:39:00+00:00,309.118,0.99,12.25,47.84626,-54.09684
2022-02-22 14:49:00+00:00,308.2764,0.8,12.25,47.84626,-54.09684
2022-02-22 14:59:00+00:00,310.538,0.85,12.25,47.84626,-54.09684
2022-02-22 15:09:00+00:00,311.1414,1.14,12.25,47.84626,-54.09684
2022-02-22 15:19:00+00:00,313.3163,1.2,12.25,47.84626,-54.09684
2022-02-22 15:29:00+00:00,317.4047,1.0,12.25,47.84626,-54.09684
2022-02-22 15:39:00+00:00,320.943,1.0,12.25,47.84626,-54.09684
2022-02-22 15:49:00+00:00,321.4597,0.98,12.25,47.84626,-54.09684
2022-02-22 15:59:00+00:00,321.428,0.97,12.25,47.84626,-54.09684
2022-02-22 16:09:00+00:00,322.5314,1.16,12.25,47.84626,-54.09684
2022-02-22 16:19:01+00:00,322.0779,1.31,12.25,47.84626,-54.09684
2022-02-22 16:29:01+00:00,321.453,1.3,12.25,47.84626,-54.09684
2022-02-22 16:39:01+00:00,318.533,1.1,12.25,47.84626,-54.09684
2022-02-22 16:49:01+00:00,317.77299999999997,1.24,12.25,47.84626,-54.09684
2022-02-22 16:59:01+00:00,317.4646,1.5,12.25,47.84626,-54.09684
2022-02-22 17:09:01+00:00,319.368,1.56,12.25,47.84626,-54.09684
2022-02-22 17:19:00+00:00,317.2379,1.36,12.25,47.84626,-54.09684
2022-02-22 17:29:00+00:00,314.738,1.31,12.25,47.84626,-54.09684
2022-02-22 17:39:00+00:00,311.7747,1.4,12.25,47.84626,-54.09684
2022-02-22 17:49:00+00:00,308.5563,1.5,12.25,47.84626,-54.09684
2022-02-22 17:59:00+00:00,303.4813,1.5,12.25,47.84626,-54.09684
2022-02-22 18:09:00+00:00,295.648,1.21,12.25,47.84626,-54.09684
2022-02-22 18:19:00+00:00,288.7831,1.05,12.25,47.84626,-54.09684
2022-02-22 18:29:00+00:00,282.613,1.5,12.25,47.84626,-54.09684
2022-02-22 18:39:00+00:00,273.5814,1.55,12.25,47.84626,-54.09684
2022-02-22 18:49:00+00:00,263.4097,1.4,12.25,47.84626,-54.09684
2022-02-22 18:59:00+00:00,257.7914,1.4,12.25,47.84626,-54.09684
2022-02-22 19:09:00+00:00,248.7381,1.4,12.25,47.84626,-54.09684
2022-02-22 19:19:00+00:00,237.813,1.37,12.25,47.84626,-54.09684
2022-02-22 19:29:00+00:00,230.4897,1.4,12.25,47.84626,-54.09684
2022-02-22 19:39:00+00:00,222.0281,1.2,12.25,47.84626,-54.09684
2022-02-22 19:49:00+00:00,209.5114,1.16,12.25,47.84626,-54.09684
2022-02-22 19:59:00+00:00,202.3148,1.2,12.25,47.84626,-54.09684
2022-02-22 20:09:00+00:00,198.7298,1.22,12.25,47.84626,-54.09684
2022-02-22 20:19:00+00:00,192.4281,1.29,12.25,47.84626,-54.09684
2022-02-22 20:29:00+00:00,189.9998,1.29,12.25,47.84626,-54.09684
2022-02-22 20:39:00+00:00,191.0915,1.3,12.25,47.84626,-54.09684
2022-02-22 20:49:00+00:00,187.6514,1.3,12.25,47.84626,-54.09684
2022-02-22 20:59:00+00:00,186.4881,1.3,12.25,47.84626,-54.09684
2022-02-22 21:09:00+00:00,188.9731,1.3,12.25,47.84626,-54.09684
2022-02-22 21:19:00+00:00,190.7115,1.3,12.25,47.84626,-54.09684
2022-02-22 21:29:00+00:00,191.0448,1.3,12.25,47.84626,-54.09684
2022-02-22 21:39:00+00:00,191.4565,1.3,12.25,47.84626,-54.09684
2022-02-22 21:49:00+00:00,196.5281,1.28,12.25,47.84626,-54.09684
2022-02-22 21:59:00+00:00,202.8098,1.2,12.25,47.84626,-54.09684
2022-02-22 22:09:00+00:00,205.3097,1.2,12.25,47.84626,-54.09684
2022-02-22 22:19:01+00:00,207.7914,1.1,12.25,47.84626,-54.09684
2022-02-22 22:29:01+00:00,212.8648,1.1,12.25,47.84626,-54.09684
2022-02-22 22:39:01+00:00,215.6381,1.11,12.25,47.84626,-54.09684
2022-02-22 22:49:01+00:00,217.9048,1.19,12.25,47.84626,-54.09684
2022-02-22 22:59:01+00:00,219.7047,1.3,12.25,47.84626,-54.09684
2022-02-22 23:09:01+00:00,222.2264,1.27,12.25,47.84626,-54.09684
2022-02-22 23:19:01+00:00,224.1081,1.49,12.25,47.84626,-54.09684
2022-02-22 23:29:01+00:00,227.5481,1.58,12.25,47.84626,-54.09684
2022-02-22 23:39:01+00:00,233.4048,1.6,12.25,47.84626,-54.09684
2022-02-22 23:49:01+00:00,239.0448,1.6,12.25,47.84626,-54.09684
2022-02-22 23:59:01+00:00,242.788,1.6,12.25,47.84626,-54.09684
